CAPE
63 33 40 81 83 78 84 102 18 17 17 0 2 10 12 8 19 12 0 0 0 0 0 0 0 0 0 0 0 0 0 0 0 0 0 0 0 0 0 0 0 0 0 0
49 79 76 86 94 119 57 30 24 20 9 4 6 7 21 33 22 16 1 0 0 0 0 0 0 0 0 0 0 0 0 0 0 0 0 0 0 0 0 0 0 0 0 0
134 118 66 71 90 121 94 49 2 2 5 72 30 45 60 31 10 21 0 0 0 0 0 0 0 0 0 0 0 0 0 0 0 0 0 0 0 0 0 0 0 0 0 0
47 33 41 19 58 101 98 25 23 7 3 11 40 48 25 40 4 3 1 0 0 0 7 3 0 0 0 0 0 0 0 0 0 0 0 0 0 0 0 0 0 0 0 0
18 40 23 48 54 86 21 5 109 97 74 23 35 70 75 42 33 2 3 0 0 0 1 0 0 0 0 0 0 0 0 0 0 0 0 0 0 0 0 0 0 0 2 13
27 18 35 22 25 66 7 14 76 145 58 69 53 74 27 23 33 15 0 0 1 3 0 0 0 0 0 0 0 0 0 0 0 0 0 0 0 0 0 11 0 0 19 5
18 28 40 3 2 15 77 31 71 89 117 65 24 26 48 48 52 17 14 1 3 0 0 0 0 0 0 0 0 0 0 0 0 0 0 0 0 0 0 0 0 1 2 0
19 36 31 1 8 8 59 65 84 88 109 49 37 51 65 43 50 1 4 2 0 0 0 0 0 0 0 0 0 0 0 0 0 1 8 5 0 0 0 0 4 11 1 0
27 26 34 4 34 43 31 30 78 180 168 56 21 55 38 44 10 15 0 0 0 2 6 0 1 8 0 1 0 0 0 0 0 0 5 1 10 0 0 0 0 0 0 0
29 36 33 18 15 1 0 1 60 91 12 90 55 62 51 23 19 4 1 0 6 14 23 7 7 3 0 1 0 0 0 0 2 12 7 22 11 0 0 1 10 2 0 0
29 21 24 15 9 1 0 20 3 0 5 1 11 23 14 9 8 2 11 11 6 19 17 4 8 10 9 13 0 0 0 0 10 16 10 10 0 0 0 4 3 8 5 4
40 29 3 4 21 3 0 10 0 0 2 13 3 0 0 0 0 0 10 4 20 13 34 16 6 13 18 11 21 0 19 0 3 1 19 0 0 7 1 0 3 8 4 7
15 8 28 5 1 9 2 23 17 0 17 33 16 8 0 3 14 0 12 25 1 21 13 47 14 14 14 25 37 7 12 2 31 0 1 3 0 1 0 0 2 5 4 6
3 0 0 7 3 10 43 55 23 2 8 28 5 1 2 0 13 18 6 2 0 20 29 15 18 0 2 28 15 28 13 2 3 6 9 15 11 8 11 2 1 4 1 4
10 2 0 5 6 6 17 32 34 0 0 18 38 10 12 8 12 11 9 26 33 3 3 24 6 0 0 1 5 31 11 27 16 33 23 4 33 31 19 15 4 4 5 3
11 5 0 0 0 6 4 7 5 1 0 2 9 2 17 12 14 14 5 8 9 5 0 0 0 0 0 2 1 0 2 0 0 0 0 0 15 13 10 3 4 4 0 0
0 2 0 0 0 12 6 15 2 0 0 50 36 10 3 2 1 4 7 2 3 3 0 0 0 0 0 0 0 0 0 0 0 4 3 7 8 14 6 4 2 0 0 1
1 2 4 1 0 0 0 0 0 0 0 0 23 20 10 5 1 2 1 0 0 0 0 0 0 0 0 0 0 1 6 11 14 10 10 8 4 4 2 3 3 3 1 1
0 1 3 16 11 1 0 0 0 33 8 7 20 21 21 13 7 5 5 4 13 4 12 0 0 0 2 2 0 5 3 3 6 7 6 4 6 4 3 2 0 0 0 0
0 12 19 37 0 0 0 13 8 10 1 10 28 5 21 12 14 19 11 12 10 13 8 0 13 27 8 8 11 10 8 11 7 7 7 5 3 4 1 0 0 0 0 1
24 9 9 1 0 6 7 45 11 1 18 19 23 19 26 24 7 19 18 20 11 9 4 10 9 24 8 7 7 7 8 8 4 4 4 5 3 2 0 0 0 0 1 3
10 0 0 0 0 1 11 0 0 1 11 27 31 47 27 32 23 20 12 9 8 12 8 7 16 9 2 6 6 4 1 0 0 0 0 0 0 0 0 0 1 3 3 4
7 3 0 0 0 0 0 0 0 14 16 27 37 45 14 12 9 5 6 11 27 17 15 13 27 5 7 6 5 2 0 0 0 0 0 0 0 0 0 3 5 5 6 5
4 6 0 1 4 6 14 3 6 10 18 69 30 29 18 10 6 5 9 1 12 14 13 13 13 6 4 4 4 0 0 0 0 0 0 0 0 1 1 1 1 4 6 5
0 0 2 8 15 14 9 14 20 53 55 25 18 10 4 7 8 6 7 9 6 9 22 17 13 6 3 9 5 3 2 1 1 1 0 0 0 2 3 3 5 5 3 2
0 1 7 12 12 26 41 49 54 38 21 13 0 0 0 2 5 3 7 10 15 41 11 9 9 7 5 4 5 5 3 1 1 1 1 1 0 0 3 2 2 2 1 1
1 12 16 20 45 26 22 43 23 20 25 163 5 0 3 9 3 5 15 30 22 14 7 11 8 6 4 5 5 1 1 1 1 1 1 2 4 2 4 4 7 7 3 0
CIN
-0 -0 -0 -0 -1 -7 -0 -0 -6 -0 -22 -0 -0 -8 -0 -1 -0 -0 -0 -0 -0 -0 -0 -0 -0 -0 -0 -0 -0 -0 -0 -0 -0 -0 -0 -0 -0 -0 -0 -0 -0 -0 -0 -0
-0 -3 -0 -0 -0 -1 -1 -5 -7 -6 -8 -20 -0 -0 -0 -0 -0 -0 -0 -0 -0 -0 -0 -0 -0 -0 -0 -0 -0 -0 -0 -0 -0 -0 -0 -0 -0 -0 -0 -0 -0 -0 -0 -0
-0 -0 -0 -0 -0 -1 -1 -5 -0 -0 -0 -0 -0 -0 -0 -0 -0 -0 -0 -0 -0 -0 -0 -0 -0 -0 -0 -0 -0 -0 -0 -0 -0 -0 -0 -0 -0 -0 -0 -0 -0 -0 -0 -0
-2 -0 -0 -0 -0 -0 -1 -8 -3 -0 -0 -1 -0 -0 -0 -0 -2 -0 -0 -0 -0 -0 -0 -0 -0 -0 -0 -0 -0 -0 -0 -0 -0 -0 -0 -0 -0 -0 -0 -1 -0 -0 -0 -0
-0 -0 -0 -0 -0 -0 -10 -23 -0 -0 -0 -0 -0 -0 -0 -0 -0 -0 -0 -0 -0 -0 -0 -0 -0 -0 -0 -0 -0 -0 -0 -0 -0 -0 -0 -0 -0 -0 -0 -0 -0 -0 -0 -0
-0 -0 -0 -0 -0 -0 -2 -4 -0 -0 -0 -0 -0 -0 -0 -0 -0 -0 -0 -0 -0 -0 -0 -0 -0 -0 -0 -0 -0 -0 -0 -0 -0 -0 -0 -0 -0 -0 -0 -15 -0 -0 -0 -4
-0 -0 -0 -9 -51 -0 -0 -0 -0 -0 -0 -0 -0 -0 -0 -0 -0 -0 -1 -1 -0 -0 -0 -0 -0 -0 -0 -0 -0 -0 -0 -0 -0 -0 -0 -0 -0 -0 -0 -0 -0 -0 -0 -0
-0 -0 -0 -0 -0 -0 -0 -0 -0 -0 -0 -0 -0 -0 -0 -0 -0 -0 -0 -0 -0 -0 -0 -0 -0 -0 -0 -0 -0 -0 -0 -0 -0 -0 -0 -0 -0 -0 -0 -0 -0 -1 -0 -0
-0 -0 -0 -0 -0 -5 -33 -35 -19 -5 -0 -0 -0 -0 -0 -0 -0 -0 -1 -0 -0 -23 -2 -0 -0 -0 -0 -0 -0 -0 -0 -0 -0 -0 -0 -0 -2 -0 -0 -0 -0 -0 -0 -0
-0 -0 -0 -0 -0 -0 -0 -0 -39 -5 -7 -1 -0 -0 -0 -0 -0 -0 -0 -0 -0 -4 -0 -0 -0 -0 -1 -0 -0 -0 -0 -0 -0 -1 -0 -2 -0 -0 -0 -0 -0 -0 -0 -0
-0 -0 -0 -0 -0 -9 -1 -0 -15 -0 -0 -0 -0 -0 -0 -0 -0 -0 -0 -0 -0 -0 -0 -0 -0 -0 -0 -0 -0 -0 -0 -0 -2 -4 -0 -0 -0 -0 -0 -0 -0 -0 -0 -0
-1 -0 -7 -10 -0 -0 -0 -0 -0 -0 -0 -0 -0 -0 -0 -0 -0 -0 -0 -0 -0 -0 -0 -0 -0 -0 -0 -0 -0 -0 -0 -0 -0 -0 -0 -0 -0 -0 -0 -0 -0 -0 -0 -0
-19 -34 -16 -11 -22 -11 -0 -0 -0 -0 -0 -0 -0 -0 -0 -0 -0 -2 -0 -0 -0 -1 -0 -0 -0 -0 -0 -0 -0 -0 -2 -8 -5 -0 -0 -0 -0 -0 -0 -0 -0 -0 -0 -0
-21 -37 -0 -33 -20 -4 -0 -0 -2 -0 -0 -0 -0 -0 -0 -0 -0 -0 -0 -2 -0 -42 -5 -4 -4 -0 -2 -0 -0 -5 -0 -0 -0 -0 -0 -0 -0 -0 -0 -0 -0 -0 -0 -0
-55 -33 -0 -35 -40 -24 -7 -3 -1 -21 -0 -0 -0 -0 -0 -5 -12 -16 -16 -31 -30 -26 -15 -22 -10 -0 -0 -0 -0 -0 -0 -4 -0 -0 -0 -0 -0 -0 -0 -0 -0 -0 -0 -0
-89 -74 -2 -0 -0 -5 -0 -0 -12 -1 -0 -0 -0 -0 -0 -4 -19 -25 -20 -13 -3 -2 -0 -0 -0 -0 -0 -0 -0 -0 -0 -0 -0 -0 -0 -0 -0 -0 -0 -0 -0 -0 -0 -0
-34 -158 -0 -0 -0 -17 -12 -0 -0 -0 -0 -0 -0 -0 -0 -2 -14 -22 -24 -8 -0 -0 -0 -0 -0 -0 -0 -0 -0 -0 -0 -0 -0 -0 -0 -0 -0 -0 -0 -0 -0 -0 -0 -0
-61 -142 -148 -76 -0 -0 -0 -0 -0 -0 -0 -0 -0 -0 -0 -2 -0 -0 -0 -0 -0 -0 -0 -0 -0 -0 -0 -0 -0 -0 -0 -0 -0 -0 -0 -0 -0 -0 -0 -0 -0 -0 -0 -0
-0 -89 -136 -84 -65 -10 -0 -0 -0 -64 -33 -0 -0 -0 -0 -0 -0 -0 -0 -0 -0 -0 -0 -0 -0 -0 -0 -0 -0 -0 -0 -0 -0 -0 -0 -0 -0 -0 -0 -0 -0 -0 -0 -0
-0 -41 -44 -4 -0 -0 -0 -45 -61 -65 -0 -0 -0 -0 -0 -0 -0 -0 -0 -0 -0 -0 -0 -0 -0 -0 -0 -0 -0 -0 -0 -0 -0 -0 -0 -0 -0 -0 -0 -0 -0 -0 -0 -0
-36 -25 -15 -25 -0 -44 -55 -36 -42 -0 -0 -0 -0 -0 -0 -0 -0 -0 -0 -0 -0 -0 -0 -0 -0 -0 -0 -0 -0 -0 -0 -0 -0 -0 -0 -0 -0 -0 -0 -0 -0 -0 -0 -0
-11 -0 -0 -0 -0 -74 -14 -0 -0 -0 -0 -0 -0 -0 -0 -0 -0 -0 -0 -0 -0 -0 -0 -0 -0 -0 -0 -0 -0 -0 -0 -0 -0 -0 -0 -0 -0 -0 -0 -0 -0 -0 -0 -0
-64 -72 -19 -15 -0 -9 -5 -0 -0 -0 -0 -0 -0 -0 -0 -0 -0 -0 -0 -0 -0 -0 -0 -0 -1 -0 -0 -0 -0 -0 -0 -0 -0 -0 -0 -0 -0 -0 -0 -0 -0 -0 -0 -0
-40 -8 -0 -0 -0 -0 -0 -0 -0 -0 -0 -0 -0 -0 -0 -0 -0 -0 -0 -0 -0 -0 -0 -0 -0 -0 -0 -0 -0 -0 -0 -0 -0 -0 -0 -0 -0 -0 -0 -0 -0 -0 -0 -0
-0 -0 -0 -0 -0 -0 -0 -0 -0 -0 -0 -0 -0 -0 -0 -0 -0 -0 -0 -0 -0 -0 -0 -0 -0 -0 -0 -0 -0 -0 -0 -0 -0 -0 -0 -0 -0 -0 -0 -0 -0 -0 -0 -0
-0 -0 -0 -0 -0 -0 -0 -0 -0 -0 -0 -0 -0 -0 -0 -0 -0 -0 -0 -0 -0 -0 -3 -0 -0 -0 -0 -0 -0 -0 -0 -0 -0 -0 -0 -0 -0 -0 -0 -0 -0 -0 -0 -0
-0 -0 -0 -0 -0 -0 -0 -0 -0 -0 -19 -2 -0 -0 -0 -0 -0 -0 -0 -0 -0 -0 -0 -0 -0 -0 -0 -0 -0 -0 -0 -0 -0 -0 -0 -0 -0 -0 -0 -0 -0 -0 -0 -0
Wind_Speed
28 30 29 26 22 22 20 7 8 12 15 7 4 7 12 14 16 22 13 9 12 13 16 20 19 16 10 15 17 18 10 7 12 17 6 7 13 11 11 4 8 7 7 10
33 31 27 25 24 26 6 7 5 12 16 13 11 16 16 18 18 24 21 18 23 18 20 10 20 19 12 17 18 14 12 8 12 7 5 8 9 10 12 8 5 10 8 5
31 26 26 27 29 31 15 7 6 5 11 18 21 23 16 16 21 23 19 18 20 19 16 15 14 17 9 16 17 9 6 7 5 8 4 11 11 17 15 11 6 9 12 15
25 27 25 24 25 34 18 10 8 12 15 17 26 30 23 24 15 18 23 18 22 20 15 22 19 18 15 15 13 9 7 7 8 4 4 6 11 12 16 12 13 11 12 17
23 25 30 34 34 35 16 12 12 19 19 29 13 26 26 30 26 25 29 17 23 24 20 20 21 17 18 11 11 10 5 4 8 10 8 7 9 11 13 16 15 16 18 17
20 28 38 49 50 49 11 15 19 16 18 29 20 25 35 34 25 26 28 26 23 23 20 16 16 16 12 9 16 15 10 7 8 9 7 7 9 17 16 7 11 12 14 9
21 27 34 33 54 62 15 17 15 18 17 24 30 33 26 27 30 19 21 21 18 8 15 18 15 14 9 13 15 12 12 11 5 5 8 9 2 3 12 16 10 12 10 5
13 17 27 29 58 55 15 17 16 14 17 21 23 27 25 21 23 17 23 21 14 19 20 18 11 8 8 10 11 11 11 9 5 6 12 4 3 5 5 9 9 9 5 4
5 14 23 30 41 25 12 6 10 12 13 20 27 28 27 18 16 14 14 9 19 12 7 10 10 9 12 12 10 9 8 9 7 8 10 7 8 12 4 2 8 9 5 1
12 15 17 22 24 20 9 5 1 11 6 14 25 22 24 18 17 10 15 13 15 11 7 10 9 9 14 11 14 15 10 10 11 9 8 3 9 10 6 6 5 6 6 1
14 13 16 21 20 18 11 7 8 7 7 6 12 25 19 18 13 15 22 13 10 9 9 7 6 6 12 10 13 14 11 10 9 11 10 11 12 10 5 7 7 6 5 3
15 12 13 15 24 21 15 9 7 7 10 6 16 14 5 5 14 16 15 10 15 8 10 7 6 6 5 12 9 14 8 6 8 6 3 10 12 7 7 5 5 5 3 5
13 13 17 16 11 13 15 14 15 15 12 9 8 13 6 9 13 12 11 9 5 2 4 5 3 4 8 7 6 11 3 6 4 6 8 11 8 7 6 5 5 6 3 5
20 20 22 23 23 22 17 10 2 8 8 8 8 8 8 8 14 13 6 13 11 9 7 4 4 4 4 4 7 8 4 8 6 6 9 8 6 6 7 7 4 8 2 4
16 17 22 21 23 23 12 8 8 2 6 9 14 20 15 13 15 17 16 15 14 9 4 5 5 4 5 5 4 5 6 4 6 3 10 2 11 8 6 6 5 4 2 3
16 16 13 10 4 5 11 8 9 8 8 9 7 4 14 16 17 17 15 10 7 7 4 5 4 3 2 6 4 6 9 7 4 5 7 8 10 8 7 8 6 5 6 5
19 21 22 19 21 11 6 6 4 5 5 6 7 5 5 9 12 11 10 9 6 6 5 3 5 5 1 2 5 10 11 11 12 12 12 8 7 5 7 7 6 3 2 4
16 17 14 12 21 16 9 8 7 4 6 6 6 5 5 5 6 5 3 5 5 5 4 3 5 5 2 3 12 13 13 13 11 7 8 10 10 9 6 6 4 2 2 5
10 10 12 8 8 5 5 12 10 7 6 5 3 7 6 3 6 7 4 3 4 1 3 3 4 4 2 14 12 12 11 8 10 9 10 10 8 8 7 4 1 1 4 4
9 8 6 5 4 7 10 3 5 6 5 5 3 7 7 7 5 2 3 1 3 4 4 5 2 8 8 6 10 11 7 13 12 10 9 9 7 6 3 5 6 5 5 6
3 3 4 4 3 1 4 4 4 3 5 4 2 10 10 3 6 4 2 3 3 4 4 3 4 5 7 9 9 10 10 9 8 7 7 5 5 6 6 6 6 6 7 8
5 8 4 1 2 3 5 4 2 4 5 4 8 9 7 3 0 4 1 3 1 5 5 2 5 5 12 11 11 10 10 11 10 10 11 10 9 7 8 8 8 8 7 6
3 3 4 2 3 3 2 5 4 5 6 6 9 8 4 4 4 4 2 3 5 7 2 4 6 11 12 12 11 11 11 11 12 12 12 12 12 10 10 9 7 7 7 6
3 2 5 4 4 5 5 9 8 6 10 11 10 5 4 3 4 2 4 4 3 4 4 4 7 13 13 11 11 12 11 10 12 11 12 12 11 10 9 8 6 7 7 6
5 4 6 6 5 6 4 5 9 10 9 10 8 5 5 4 4 2 5 4 4 4 3 5 9 14 13 12 12 12 11 10 10 10 10 10 10 10 9 7 8 8 6 6
4 7 5 5 8 7 6 7 8 7 7 5 4 4 4 3 4 3 3 5 4 4 6 8 12 14 14 13 12 11 11 11 11 10 11 10 9 9 10 8 7 6 6 5
5 4 6 4 7 7 5 5 5 5 3 3 3 3 3 2 2 3 2 2 5 7 7 8 12 14 13 13 12 11 12 12 12 11 11 10 10 9 8 8 7 6 6 4
Wind_Direction
256 259 247 227 218 214 197 194 210 165 155 183 204 211 192 220 211 205 203 244 220 231 203 203 215 216 183 175 181 194 183 229 169 213 133 283 198 199 208 238 178 226 300 295
263 247 230 220 215 198 190 204 161 180 166 207 199 213 216 221 215 196 189 199 211 208 211 189 228 224 192 181 185 176 181 203 161 180 193 211 228 216 213 221 263 257 271 258
244 233 231 228 219 208 197 187 160 191 201 203 204 201 211 204 209 213 203 198 184 191 189 194 203 207 196 181 187 97 178 204 229 233 88 138 197 208 206 189 230 250 246 282
241 244 237 233 230 206 191 191 184 179 187 200 211 202 200 198 177 200 205 208 201 182 182 197 199 167 172 186 123 172 209 202 205 217 161 163 182 200 214 211 222 264 292 313
260 255 258 247 225 219 199 192 194 190 201 199 197 204 208 198 187 184 198 192 191 181 191 196 185 166 170 168 174 174 215 192 200 219 219 207 219 214 218 225 239 252 262 272
272 273 271 261 231 191 199 189 203 194 207 189 194 203 199 197 188 194 192 203 188 191 192 183 149 177 160 164 176 183 178 182 201 230 199 211 245 234 224 204 225 242 262 321
281 285 291 241 178 177 177 181 184 197 193 184 197 201 202 203 198 191 188 188 167 128 116 97 126 189 183 169 181 177 189 199 195 206 158 217 101 303 223 200 208 240 266 319
293 329 338 158 164 168 180 166 191 177 196 187 186 196 193 188 185 186 187 171 140 152 122 111 112 135 135 179 179 184 204 188 190 213 209 135 174 203 164 189 217 199 209 241
32 26 36 83 137 155 147 158 163 184 170 193 176 172 174 164 156 156 139 104 150 159 151 160 163 172 165 187 171 191 200 210 218 200 231 221 77 120 107 129 244 144 154 284
40 61 67 76 77 81 96 70 344 136 97 172 175 172 168 155 155 130 153 141 161 201 159 171 177 195 186 171 181 185 179 192 210 207 221 132 139 138 160 216 90 120 123 174
24 58 88 91 95 83 81 62 34 104 81 42 147 150 148 156 160 148 147 154 182 179 170 185 186 180 185 181 177 175 171 183 200 224 219 231 134 152 231 87 123 123 140 108
5 75 96 90 114 100 97 95 63 72 75 92 81 70 146 59 160 136 158 136 152 158 182 185 180 177 166 174 151 171 186 215 174 220 213 118 163 94 109 93 102 110 100 87
45 69 115 118 95 109 106 112 120 105 105 81 87 96 92 205 155 151 133 153 107 117 119 118 113 144 203 173 146 167 171 140 181 150 153 138 132 114 116 109 111 120 89 84
56 73 92 99 109 119 105 100 168 106 105 91 96 129 102 121 147 162 178 112 114 134 132 118 143 138 277 157 135 169 150 186 148 130 145 117 159 149 138 118 118 104 58 43
45 61 75 86 96 92 86 72 74 136 96 107 103 68 59 94 109 110 126 136 127 141 128 112 86 93 102 125 157 106 161 180 175 165 130 153 133 132 132 137 120 92 48 40
63 70 78 86 93 161 95 58 23 82 122 100 72 61 72 85 91 96 98 96 103 111 97 97 83 57 233 181 146 126 103 97 42 112 94 98 99 116 94 102 99 93 75 26
73 67 74 83 69 59 47 64 79 322 104 98 94 76 57 78 90 90 90 76 69 87 87 74 122 137 159 181 114 138 135 117 114 109 101 98 75 85 98 118 117 136 72 77
56 50 59 96 108 115 63 36 355 309 77 74 86 108 98 8 113 86 54 88 73 36 84 148 115 135 62 105 114 129 131 131 136 125 63 118 127 131 131 144 165 173 7 20
43 37 36 47 33 49 63 332 322 49 55 91 98 128 116 105 81 116 83 83 79 64 128 113 172 133 73 122 144 139 140 137 118 117 115 130 131 137 132 127 103 51 51 34
30 25 38 57 34 323 296 34 38 37 37 37 68 102 112 131 132 84 101 21 136 137 66 137 203 79 101 87 104 107 118 119 136 136 137 145 141 141 134 90 78 67 58 55
56 60 61 72 255 183 32 56 47 102 86 77 73 130 128 110 122 115 23 133 185 146 128 186 154 124 134 120 107 111 111 115 97 95 100 97 131 130 127 101 84 72 60 55
60 96 100 69 43 77 83 62 86 57 104 114 126 125 109 73 325 105 65 92 265 83 161 132 166 105 146 138 129 121 117 115 112 106 101 95 92 92 98 93 79 72 78 85
95 70 62 351 9 77 69 126 104 112 123 145 139 126 113 119 89 83 97 108 65 135 162 166 60 142 136 139 137 129 116 115 113 104 98 94 87 83 97 102 101 98 93 90
49 64 62 14 69 57 29 65 88 110 123 141 131 121 81 132 73 123 84 83 163 165 166 162 134 147 145 147 139 134 122 111 107 105 104 105 106 100 91 84 92 100 95 76
36 15 51 61 83 63 66 108 116 119 114 126 124 91 84 71 108 89 120 156 163 200 160 96 125 142 152 144 139 130 128 122 119 119 116 113 114 110 101 94 93 100 104 93
44 42 85 104 99 90 88 97 106 133 129 87 68 91 71 68 115 113 168 167 179 119 81 118 141 150 148 148 142 139 138 132 126 125 129 124 123 126 115 108 104 106 106 108
35 54 30 69 69 83 104 128 117 129 99 63 94 83 72 136 149 149 145 80 65 114 122 134 138 148 145 141 136 135 135 133 133 132 134 134 125 131 139 136 137 131 109 110